Location: Larrial
(48.2758°N, 4.5331°W)
Time: 09:41:30
(UTC+00:00)

XW-2F - Pass Details

Date: 07 December 2021
Orbit: 495 x 515 km, 97.5° (Epoch: 15 January)

Event Time Altitude Azimuth Distance (km) Brightness Sun altitude
Rises 18:28:09 0° 199° (SSW) 2,606 ? -19.7°
Reaches altitude 10° 18:30:35 10° 215° (SW) 1,730 ? -20.1°
Maximum altitude 18:33:30 22° 267° (W) 1,176 ? -20.6°
Drops below altitude 10° 18:36:28 10° 319° (NW) 1,750 ? -21.0°
Sets 18:38:57 0° 335° (NNW) 2,646 ? -21.5°
